Location: Bow
(51.5261°N, 0.0167°W)
Time: 21:35:05
(UTC+00:00)

Cosmos 2151 Rocket - Pass Details

Date: 18 September 2020
Orbit: 618 x 642 km, 82.5° (Epoch: 20 October)

Event Time Altitude Azimuth Distance (km) Brightness Sun altitude
Rises 20:22:47 0° 202° (SSW) 2,905 6.9 -20.9°
Reaches altitude 10° 20:25:03 10° 207° (SSW) 2,007 6.1 -21.2°
Maximum altitude 20:29:24 53° 285° (WNW) 786 4.4 -21.8°
Drops below altitude 10° 20:33:50 10° 3° (N) 2,037 6.6 -22.3°
Sets 20:36:09 0° 8° (N) 2,954 7.4 -22.6°
